| time (UTC) | temp F | wind direction | speed MPH | gust MPH | rain 1hr in | rain 24hr in | rain mn in | humidity % | barometer mb |
| 20260507104521 | 53 | 16 | 0.0 | 0.0 | 0.00 | 0.02 | 0.00 | 91 | 1017.6 |
| 20260507103018 | 53 | 16 | 0.0 | 0.0 | 0.00 | 0.02 | 0.00 | 90 | 1017.4 |
| 20260507101521 | 53 | 16 | 0.0 | 0.0 | 0.00 | 0.02 | 0.00 | 89 | 1016.9 |
| 20260507100027 | 54 | 16 | 0.0 | 1.0 | 0.00 | 0.02 | 0.00 | 89 | 1016.7 |
| 20260507094509 | 54 | 16 | 1.0 | 4.0 | 0.00 | 0.02 | 0.00 | 89 | 1016.3 |
| 20260507093008 | 54 | 11 | 0.0 | 3.0 | 0.00 | 0.02 | 0.00 | 90 | 1016.3 |
| 20260507091506 | 54 | 11 | 1.0 | 4.0 | 0.00 | 0.02 | 0.00 | 89 | 1016.1 |
| 20260507090007 | 54 | 11 | 0.0 | 2.0 | 0.00 | 0.02 | 0.00 | 89 | 1016.2 |
| 20260507084507 | 55 | 11 | 0.0 | 0.0 | 0.00 | 0.02 | 0.00 | 88 | 1016.2 |
| 20260507083005 | 55 | 11 | 0.0 | 2.0 | 0.00 | 0.02 | 0.00 | 87 | 1016.2 |
| 20260507081600 | 55 | 11 | 0.0 | 3.0 | 0.00 | 0.02 | 0.00 | 87 | 1016.3 |
| 20260507080056 | 56 | 11 | 0.0 | 3.0 | 0.00 | 0.02 | 0.00 | 86 | 1016.1 |
| 20260507074555 | 56 | 8 | 2.0 | 4.0 | 0.00 | 0.02 | 0.00 | 86 | 1015.9 |
| 20260507073057 | 56 | 9 | 2.0 | 5.0 | 0.00 | 0.02 | 0.00 | 85 | 1015.8 |
| 20260507071551 | 56 | 4 | 1.0 | 6.0 | 0.00 | 0.02 | 0.00 | 84 | 1015.6 |
| 20260507064550 | 57 | 2 | 2.0 | 5.0 | 0.00 | 0.02 | 0.00 | 83 | 1015.7 |
| 20260507063053 | 57 | 9 | 1.0 | 6.0 | 0.00 | 0.02 | 0.00 | 82 | 1015.7 |
| 20260507061545 | 57 | 27 | 1.0 | 4.0 | 0.00 | 0.02 | 0.00 | 82 | 1015.4 |
| 20260507060045 | 57 | 51 | 0.0 | 3.0 | 0.00 | 0.02 | 0.00 | 82 | 1015.4 |
| 20260507054544 | 58 | 49 | 1.0 | 4.0 | 0.00 | 0.02 | 0.00 | 81 | 1015.3 |
| 20260507053040 | 58 | 41 | 1.0 | 6.0 | 0.00 | 0.02 | 0.00 | 81 | 1015.2 |
| 20260507051539 | 58 | 25 | 2.0 | 6.0 | 0.00 | 0.02 | 0.00 | 81 | 1015.2 |
| 20260507050059 | 58 | 18 | 0.0 | 3.0 | 0.00 | 0.02 | 0.00 | 80 | 1015.2 |
| 20260507044546 | 58 | 7 | 1.0 | 5.0 | 0.00 | 0.02 | 0.02 | 79 | 1015.4 |
| 20260507043036 | 58 | 6 | 2.0 | 8.0 | 0.00 | 0.02 | 0.02 | 78 | 1015.4 |
| 20260507041535 | 59 | 11 | 1.0 | 6.0 | 0.00 | 0.02 | 0.02 | 77 | 1015.5 |
| 20260507040034 | 59 | 22 | 2.0 | 8.0 | 0.00 | 0.02 | 0.02 | 77 | 1015.5 |
| 20260507034539 | 59 | 38 | 1.0 | 10.0 | 0.00 | 0.02 | 0.02 | 77 | 1015.6 |
| 20260507033039 | 60 | 360 | 5.0 | 11.0 | 0.00 | 0.02 | 0.02 | 76 | 1015.7 |
| 20260507031534 | 60 | 4 | 2.0 | 8.0 | 0.00 | 0.02 | 0.02 | 77 | 1015.6 |
| 20260507030035 | 60 | 12 | 2.0 | 9.0 | 0.00 | 0.02 | 0.02 | 77 | 1015.4 |
| 20260507024535 | 60 | 360 | 3.0 | 8.0 | 0.00 | 0.02 | 0.02 | 77 | 1015.1 |
| 20260507023025 | 60 | 1 | 3.0 | 12.0 | 0.00 | 0.02 | 0.02 | 76 | 1014.8 |
| 20260507021543 | 61 | 34 | 3.0 | 11.0 | 0.00 | 0.02 | 0.02 | 76 | 1014.4 |
| 20260507020025 | 62 | 6 | 4.0 | 10.0 | 0.00 | 0.02 | 0.02 | 76 | 1014.2 |
| 20260507014524 | 62 | 9 | 3.0 | 11.0 | 0.00 | 0.02 | 0.02 | 77 | 1013.8 |
| 20260507013021 | 62 | 1 | 2.0 | 6.0 | 0.00 | 0.02 | 0.02 | 77 | 1013.4 |
| 20260507011528 | 62 | 3 | 2.0 | 10.0 | 0.00 | 0.02 | 0.02 | 76 | 1013.0 |
| 20260507010029 | 62 | 5 | 4.0 | 11.0 | 0.00 | 0.02 | 0.02 | 76 | 1012.9 |
| 20260507004521 | 62 | 359 | 2.0 | 8.0 | 0.00 | 0.02 | 0.02 | 76 | 1012.7 |
| 20260507003019 | 63 | 13 | 4.0 | 7.0 | 0.00 | 0.02 | 0.02 | 75 | 1012.7 |
| 20260507001517 | 63 | 1 | 2.0 | 10.0 | 0.00 | 0.02 | 0.02 | 75 | 1012.5 |
| 20260507000017 | 63 | 51 | 2.0 | 10.0 | 0.00 | 0.02 | 0.02 | 75 | 1012.2 |
| 20260506234517 | 63 | 20 | 5.0 | 9.0 | 0.00 | 0.02 | 0.02 | 75 | 1012.1 |
| 20260506233017 | 64 | 330 | 3.0 | 10.0 | 0.00 | 0.02 | 0.02 | 75 | 1012.0 |
| 20260506231522 | 64 | 4 | 2.0 | 12.0 | 0.00 | 0.02 | 0.02 | 75 | 1011.8 |
| 20260506230015 | 64 | 2 | 2.0 | 7.0 | 0.00 | 0.02 | 0.02 | 75 | 1011.8 |
| 20260506224515 | 64 | 1 | 1.0 | 8.0 | 0.00 | 0.02 | 0.02 | 76 | 1011.5 |
| 20260506223017 | 65 | 16 | 3.0 | 8.0 | 0.00 | 0.02 | 0.02 | 75 | 1011.7 |
| 20260506221513 | 65 | 1 | 3.0 | 8.0 | 0.00 | 0.02 | 0.02 | 75 | 1011.4 |
| 20260506220022 | 65 | 353 | 3.0 | 9.0 | 0.00 | 0.02 | 0.02 | 75 | 1011.6 |
| 20260506214511 | 64 | 354 | 3.0 | 8.0 | 0.00 | 0.02 | 0.02 | 76 | 1011.4 |
| 20260506213007 | 62 | 12 | 2.0 | 8.0 | 0.00 | 0.02 | 0.02 | 78 | 1011.6 |
| 20260506211505 | 62 | 295 | 1.0 | 6.0 | 0.00 | 0.02 | 0.02 | 77 | 1011.9 |
| 20260506210006 | 62 | 6 | 2.0 | 7.0 | 0.00 | 0.02 | 0.02 | 76 | 1011.8 |
| 20260506204505 | 62 | 340 | 0.0 | 7.0 | 0.00 | 0.02 | 0.02 | 77 | 1011.7 |
| 20260506203011 | 62 | 1 | 0.0 | 5.0 | 0.00 | 0.02 | 0.02 | 77 | 1011.9 |
| 20260506201502 | 61 | 316 | 1.0 | 6.0 | 0.00 | 0.02 | 0.02 | 78 | 1012.1 |
| 20260506200001 | 61 | 360 | 2.0 | 7.0 | 0.00 | 0.02 | 0.02 | 78 | 1012.7 |
| 20260506194624 | 60 | 324 | 1.0 | 5.0 | 0.00 | 0.02 | 0.02 | 79 | 1012.8 |
| 20260506193100 | 59 | 8 | 1.0 | 7.0 | 0.00 | 0.02 | 0.02 | 79 | 1012.9 |
| 20260506191559 | 59 | 8 | 1.0 | 6.0 | 0.00 | 0.02 | 0.02 | 80 | 1013.0 |
| 20260506190101 | 60 | 1 | 3.0 | 6.0 | 0.00 | 0.02 | 0.02 | 77 | 1012.8 |
| 20260506184605 | 59 | 4 | 1.0 | 5.0 | 0.00 | 0.02 | 0.02 | 80 | 1012.6 |
| 20260506183105 | 58 | 326 | 3.0 | 11.0 | 0.00 | 0.02 | 0.02 | 80 | 1011.6 |
| 20260506181600 | 58 | 8 | 5.0 | 12.0 | 0.00 | 0.02 | 0.02 | 80 | 1011.7 |
| 20260506180056 | 57 | 11 | 5.0 | 12.0 | 0.00 | 0.02 | 0.02 | 82 | 1012.3 |
| 20260506174559 | 56 | 1 | 5.0 | 10.0 | 0.00 | 0.02 | 0.02 | 84 | 1012.1 |
| 20260506173108 | 55 | 360 | 3.0 | 11.0 | 0.00 | 0.02 | 0.02 | 85 | 1012.0 |
| 20260506171554 | 55 | 7 | 5.0 | 10.0 | 0.00 | 0.02 | 0.02 | 85 | 1012.0 |
| 20260506170051 | 55 | 360 | 4.0 | 12.0 | 0.01 | 0.02 | 0.02 | 86 | 1012.5 |
| 20260506164555 | 54 | 4 | 2.0 | 8.0 | 0.01 | 0.02 | 0.02 | 88 | 1012.7 |
| 20260506163054 | 54 | 6 | 3.0 | 10.0 | 0.02 | 0.02 | 0.02 | 88 | 1012.9 |
| 20260506161601 | 54 | 350 | 1.0 | 7.0 | 0.02 | 0.02 | 0.02 | 89 | 1012.8 |
| 20260506160048 | 54 | 203 | 2.0 | 10.0 | 0.01 | 0.01 | 0.01 | 91 | 1012.1 |
| 20260506154546 | 54 | 360 | 3.0 | 11.0 | 0.01 | 0.01 | 0.01 | 91 | 1011.8 |
| 20260506153045 | 53 | 121 | 2.0 | 10.0 | 0.00 | 0.00 | 0.00 | 90 | 1012.2 |
| 20260506151559 | 53 | 309 | 1.0 | 3.0 | 0.00 | 0.00 | 0.00 | 87 | 1014.2 |
| 20260506150039 | 54 | 295 | 1.0 | 5.0 | 0.00 | 0.00 | 0.00 | 87 | 1013.4 |
| 20260506144539 | 54 | 20 | 2.0 | 10.0 | 0.00 | 0.00 | 0.00 | 87 | 1012.7 |
| 20260506143045 | 54 | 9 | 4.0 | 11.0 | 0.00 | 0.00 | 0.00 | 85 | 1011.4 |
| 20260506141534 | 54 | 1 | 1.0 | 10.0 | 0.00 | 0.00 | 0.00 | 86 | 1012.9 |
| 20260506140036 | 54 | 1 | 1.0 | 4.0 | 0.00 | 0.00 | 0.00 | 86 | 1012.4 |
| 20260506134528 | 53 | 29 | 3.0 | 9.0 | 0.00 | 0.00 | 0.00 | 86 | 1011.8 |
| 20260506133028 | 53 | 13 | 5.0 | 10.0 | 0.00 | 0.00 | 0.00 | 86 | 1011.5 |
| 20260506131528 | 53 | 335 | 1.0 | 6.0 | 0.00 | 0.00 | 0.00 | 86 | 1011.3 |
| 20260506130023 | 53 | 360 | 3.0 | 8.0 | 0.00 | 0.00 | 0.00 | 86 | 1011.2 |
| 20260506124521 | 53 | 301 | 2.0 | 12.0 | 0.00 | 0.00 | 0.00 | 85 | 1011.1 |
| 20260506123018 | 53 | 24 | 1.0 | 10.0 | 0.00 | 0.00 | 0.00 | 84 | 1011.0 |
| 20260506121515 | 54 | 4 | 2.0 | 6.0 | 0.00 | 0.00 | 0.00 | 83 | 1010.8 |
| 20260506120013 | 54 | 6 | 2.0 | 6.0 | 0.00 | 0.00 | 0.00 | 82 | 1010.6 |
| 20260506114514 | 55 | 341 | 1.0 | 8.0 | 0.00 | 0.00 | 0.00 | 81 | 1010.4 |
| 20260506113008 | 55 | 4 | 1.0 | 6.0 | 0.00 | 0.00 | 0.00 | 81 | 1010.2 |
| 20260506111508 | 55 | 18 | 2.0 | 10.0 | 0.00 | 0.00 | 0.00 | 81 | 1009.7 |
| 20260506110006 | 55 | 1 | 2.0 | 9.0 | 0.00 | 0.00 | 0.00 | 80 | 1009.6 |